TimeCDT,TemperatureF,Dew PointF,Humidity,Sea Level PressureIn,VisibilityMPH,Wind Direction,Wind SpeedMPH,Gust SpeedMPH,PrecipitationIn,Events,Conditions,WindDirDegrees,DateUTC
12:55 AM,64.9,57.0,75,29.91,10.0,SW,6.9,-,N/A,,Clear,230,2012-03-28 05:55:00
1:55 AM,62.1,57.0,84,29.94,10.0,West,8.1,-,N/A,,Clear,270,2012-03-28 06:55:00
2:55 AM,57.9,52.0,81,29.95,10.0,NW,6.9,-,N/A,,Clear,310,2012-03-28 07:55:00
3:55 AM,57.0,48.0,72,29.96,10.0,NNW,4.6,-,N/A,,Clear,330,2012-03-28 08:55:00
4:55 AM,48.9,45.0,86,29.98,10.0,Calm,Calm,-,N/A,,Clear,0,2012-03-28 09:55:00
5:55 AM,46.0,44.1,93,29.99,10.0,Calm,Calm,-,N/A,,Clear,0,2012-03-28 10:55:00
6:55 AM,45.0,43.0,93,30.01,10.0,North,3.5,-,N/A,,Clear,360,2012-03-28 11:55:00
7:55 AM,48.9,46.0,90,30.03,10.0,Calm,Calm,-,N/A,,Clear,0,2012-03-28 12:55:00
8:55 AM,60.1,46.0,60,30.03,10.0,Calm,Calm,-,N/A,,Clear,0,2012-03-28 13:55:00
9:55 AM,64.9,44.1,47,30.04,10.0,Calm,Calm,-,N/A,,Clear,0,2012-03-28 14:55:00
10:55 AM,68.0,41.0,37,30.07,10.0,ENE,3.5,-,N/A,,Clear,70,2012-03-28 15:55:00
11:55 AM,70.0,37.9,31,30.06,10.0,WNW,4.6,-,N/A,,Clear,300,2012-03-28 16:55:00
12:55 PM,72.0,39.9,31,30.04,10.0,NE,4.6,-,N/A,,Clear,50,2012-03-28 17:55:00
1:55 PM,73.9,43.0,33,30.03,10.0,Variable,5.8,-,N/A,,Clear,0,2012-03-28 18:55:00
2:55 PM,73.9,39.0,28,30.00,10.0,Calm,Calm,-,N/A,,Clear,0,2012-03-28 19:55:00
3:55 PM,75.0,39.9,28,29.98,8.0,Calm,Calm,-,N/A,,Clear,0,2012-03-28 20:55:00
4:55 PM,75.0,42.1,31,29.98,10.0,ENE,3.5,-,N/A,,Clear,60,2012-03-28 21:55:00
5:55 PM,73.0,43.0,34,29.97,10.0,NE,6.9,-,N/A,,Clear,50,2012-03-28 22:55:00
6:55 PM,68.0,45.0,43,29.98,10.0,ENE,4.6,-,N/A,,Partly Cloudy,60,2012-03-28 23:55:00
7:55 PM,62.1,46.9,58,29.99,10.0,NE,4.6,-,N/A,,Clear,40,2012-03-29 00:55:00
8:55 PM,59.0,45.0,60,29.99,10.0,ENE,4.6,-,N/A,,Clear,60,2012-03-29 01:55:00
9:55 PM,57.0,44.1,62,30.01,10.0,ENE,3.5,-,N/A,,Clear,60,2012-03-29 02:55:00
10:55 PM,59.0,43.0,55,29.98,10.0,ENE,5.8,-,N/A,,Partly Cloudy,70,2012-03-29 03:55:00
11:55 PM,61.0,41.0,48,29.96,10.0,ENE,6.9,-,N/A,,Mostly Cloudy,60,2012-03-29 04:55:00